Location: Okie-Tex Star Party
(36.8978°N, 102.9520°W)
Time: 04:26:28
(UTC-05:00)

Amateur Radio Satellites - All Passes

Search period start: 05 July 2015 03:56
Search period end: 06 July 2015 03:56
Location: Okie-Tex Star Party, 36.8978°N, 102.9520°W

Satellite Date Start Highest point End Downlink Frequencies (MHz)
Time Altitude Azimuth
BEESAT 05 Jul 04:11:13 04:13:56 14° 269° (W) 04:16:25 436.000
Oscar 19 05 Jul 04:14:21 04:18:54 32° 290° (WNW) 04:23:21 437.125/150
Gurwin Techsat 1B 05 Jul 04:23:52 04:29:13 88° 103° (ESE) 04:34:33 435.225
ITAMSAT 1 05 Jul 04:26:37 04:31:51 89° 92° (E) 04:37:04 435.822/435.867
STARS 05 Jul 04:27:17 04:31:41 88° 257° (WSW) 04:36:06 437.465
HORYU 2 05 Jul 04:33:21 04:35:05 12° 90° (E) 04:37:05 437.375
Cosmos 2491 05 Jul 04:46:37 04:54:46 44° 271° (W) 05:02:46 435.465 / 435.565
KKS-1 05 Jul 05:15:10 05:17:58 16° 268° (W) 05:20:36 437.445
JAS-2 05 Jul 05:15:49 05:22:35 73° 102° (ESE) 05:30:07 435.910
YUBILEINY 05 Jul 05:16:29 05:25:03 60° 281° (WNW) 05:33:37 435.215
MOZHAYETS 4 05 Jul 05:34:50 05:39:23 77° 77° (ENE) 05:43:59
AO-7 05 Jul 05:43:41 05:51:58 62° 103° (ESE) 06:00:13 29.400- 29.500
CUBESAT XI-V 05 Jul 06:06:02 06:08:06 13° 66° (ENE) 06:10:25 437.345
Gurwin Techsat 1B 05 Jul 06:06:59 06:08:32 11° 298° (WNW) 06:09:45 435.225
HORYU 2 05 Jul 06:07:45 06:12:06 53° 286° (WNW) 06:16:27 437.375
RS-15 05 Jul 06:09:08 06:17:55 25° 329° (NNW) 06:26:39 29.354- 29.394
ITAMSAT 1 05 Jul 06:09:29 06:10:42 11° 298° (WNW) 06:11:35 435.822/435.867
Cosmos 2504 05 Jul 06:40:30 06:47:13 55° 92° (E) 06:53:56 435.465 / 435.565
JAS-2 05 Jul 07:02:27 07:07:14 20° 294° (WNW) 07:12:03 435.910
CUTE-I 05 Jul 07:08:02 07:11:34 18° 92° (E) 07:15:17 437.470
STRAND 1 05 Jul 07:15:48 07:20:01 27° 69° (ENE) 07:24:21 437.568
ISS 05 Jul 07:29:00 07:29:28 10° 128° (SE) 07:30:05 145.825
PRISM 05 Jul 07:35:28 07:39:13 34° 72° (ENE) 07:43:03 437.425
AO-7 05 Jul 07:37:22 07:44:17 29° 300° (WNW) 07:50:57 29.400- 29.500
CUBESAT XI-V 05 Jul 07:40:26 07:45:05 60° 260° (W) 07:49:46 437.345
Cubesat XI-IV 05 Jul 07:41:22 07:46:22 39° 98° (E) 07:51:22 437.490
VERMONT LUNAR 05 Jul 07:47:51 07:50:40 32° 152° (SSE) 07:53:31 437.305
BEESAT 3 05 Jul 07:54:34 07:58:32 56° 117° (ESE) 08:02:34 437.485
O/OREOS (USA 219) 05 Jul 07:55:19 07:59:22 36° 105° (ESE) 08:03:29 437.305
BEESAT 2 05 Jul 08:07:48 08:11:50 62° 118° (ESE) 08:15:55 435.950
DANDE 05 Jul 08:15:50 08:21:38 27° 94° (E) 08:26:36 436.750
PHONESAT 2.4 05 Jul 08:18:18 08:19:18 11° 143° (SE) 08:20:26 2401.200-2431.200
RS-15 05 Jul 08:30:27 08:36:13 15° 4° (N) 08:42:11 29.354- 29.394
Cosmos 2504 05 Jul 08:34:37 08:39:55 22° 291° (WNW) 08:44:56 435.465 / 435.565
M-CUBED/EXP-1 PRIME 05 Jul 08:41:08 08:43:07 15° 64° (ENE) 08:45:14 437.505
CUTE-I 05 Jul 08:46:48 08:51:59 50° 288° (WNW) 08:57:06 437.470
CUSAT 1 05 Jul 08:48:18 08:54:58 67° 98° (E) 09:00:03 437.405
STRAND 1 05 Jul 08:54:29 08:59:07 32° 264° (W) 09:03:42 437.568
ISS 05 Jul 09:02:18 09:05:31 64° 320° (NW) 09:08:44 145.825
HO-68 05 Jul 09:07:36 09:11:28 16° 89° (E) 09:15:47 435.675
PRISM 05 Jul 09:12:02 09:14:48 17° 267° (W) 09:17:26 437.425
Cubesat XI-IV 05 Jul 09:21:58 09:26:16 24° 293° (WNW) 09:30:25 437.490
GOMX 1 05 Jul 09:23:32 09:26:48 23° 94° (E) 09:30:09 467.674
VERMONT LUNAR 05 Jul 09:24:26 09:27:30 57° 347° (NNW) 09:30:35 437.305
AIST 2 05 Jul 09:31:36 09:35:50 67° 301° (WNW) 09:40:06 435.215
BEESAT 3 05 Jul 09:34:36 09:36:53 14° 315° (NW) 09:39:01 437.485
O/OREOS (USA 219) 05 Jul 09:35:41 09:38:57 19° 302° (WNW) 09:42:06 437.305
AUBIESAT-1 05 Jul 09:39:11 09:42:29 85° 73° (ENE) 09:45:55 437.475
BEESAT 2 05 Jul 09:48:14 09:50:21 13° 315° (NW) 09:52:19 435.950
BRITE-PL 05 Jul 09:51:51 09:56:09 88° 284° (WNW) 10:00:17 437.365/2234.400
GONETS M04 05 Jul 09:52:35 10:01:04 57° 92° (E) 10:09:35
PHONESAT 2.4 05 Jul 09:53:31 09:56:54 59° 155° (SSE) 10:00:17 2401.200-2431.200
COMPASS 1 05 Jul 09:57:33 10:00:33 19° 93° (E) 10:03:42 437.405
DANDE 05 Jul 09:57:45 10:04:46 45° 281° (WNW) 10:10:12 436.750
DOVE 4 05 Jul 10:02:59 10:06:53 39° 98° (E) 10:10:50 437.250
CUTE 1.7 + AOD 2 05 Jul 10:09:36 10:13:41 43° 98° (E) 10:17:48 437.475
CANX-2 05 Jul 10:13:01 10:17:13 54° 99° (E) 10:21:26 2200.000
M-CUBED/EXP-1 PRIME 05 Jul 10:15:07 10:17:49 23° 260° (W) 10:20:33 437.505
CUSAT 1 05 Jul 10:34:11 10:37:38 15° 287° (WNW) 10:40:24 437.405
UWE-3 05 Jul 10:38:19 10:40:51 16° 92° (E) 10:43:35 435.000/436.395/437.385
ISS 05 Jul 10:41:08 10:42:28 12° 339° (NNW) 10:43:43 145.825
CINEMA 3 05 Jul 10:42:04 10:46:08 50° 99° (E) 10:50:18 145.822/145.860
RS-15 05 Jul 10:44:20 10:54:06 31° 37° (NE) 11:04:30 29.354- 29.394
HO-68 05 Jul 10:52:53 11:00:05 81° 286° (WNW) 11:07:14 435.675
ANTELSAT 05 Jul 10:55:03 10:58:27 24° 70° (ENE) 11:01:55 437.575/2403.000
SEEDS 05 Jul 10:56:24 11:00:37 63° 284° (WNW) 11:04:50 437.485
GOMX 1 05 Jul 11:01:34 11:04:57 24° 289° (WNW) 11:08:13 467.674
VERMONT LUNAR 05 Jul 11:01:42 11:04:41 41° 3° (N) 11:07:41 437.305
NANOSAT C BR1 05 Jul 11:02:24 11:03:35 11° 66° (ENE) 11:05:00 145.865
AAUSAT CUBESAT 2 05 Jul 11:05:12 11:09:24 75° 285° (WNW) 11:13:37 437.432
TIGRISAT 05 Jul 11:06:36 11:10:21 31° 72° (ENE) 11:14:08 435.000
DUCHIFAT 1 05 Jul 11:08:18 11:10:09 13° 67° (ENE) 11:12:13 145.980
POLYITAN 1 05 Jul 11:13:51 11:16:23 16° 68° (ENE) 11:19:05 437.675
DELFI C3 05 Jul 11:14:42 11:18:30 38° 98° (E) 11:22:20 145.870
BUGSAT 1 05 Jul 11:21:30 11:23:00 12° 67° (ENE) 11:24:44 437.445
ZACube-1 05 Jul 11:22:40 11:26:39 40° 98° (E) 11:30:44 437.345
Cosmos 2499 05 Jul 11:23:14 11:29:41 41° 90° (E) 11:36:17 435.465 / 435.565
CUBEBUG 2 05 Jul 11:24:15 11:28:29 73° 102° (ESE) 11:32:48 437.445
UKube-1 05 Jul 11:28:31 11:30:29 13° 91° (E) 11:32:41 .
Oscar 11 05 Jul 11:29:16 11:33:39 87° 101° (E) 11:38:00 145.826/435.025
PHONESAT 2.4 05 Jul 11:31:38 11:34:59 49° 352° (N) 11:38:21 2401.200-2431.200
COMPASS 1 05 Jul 11:32:33 11:36:17 30° 288° (WNW) 11:39:57 437.405
HUMSAT D 05 Jul 11:34:28 11:37:41 22° 94° (E) 11:41:01 437.325/437.525
QB50P2 05 Jul 11:41:59 11:45:48 34° 72° (ENE) 11:49:39 145.880/145.840
DOVE 4 05 Jul 11:42:04 11:44:23 14° 292° (WNW) 11:46:32 437.250
POPSAT HIP 1 05 Jul 11:42:29 11:46:17 33° 72° (ENE) 11:50:06 437.405
UNISAT 6 05 Jul 11:46:07 11:50:26 84° 258° (WSW) 11:54:43 437.425
CUTE 1.7 + AOD 2 05 Jul 11:46:48 11:49:16 15° 292° (WNW) 11:51:34 437.475
AISAT 05 Jul 11:50:08 11:52:28 15° 91° (E) 11:55:01 437.250
CANX-2 05 Jul 11:50:56 11:52:44 12° 293° (WNW) 11:54:19 2200.000
GONETS M04 05 Jul 11:51:01 11:58:28 29° 291° (WNW) 12:05:37
FUNcube-1 05 Jul 11:58:13 12:02:27 77° 283° (WNW) 12:06:46 145.935
CUBEBUG 1 05 Jul 12:06:12 12:07:09 11° 89° (E) 12:08:21 437.445
UWE-3 05 Jul 12:13:38 12:17:33 37° 287° (WNW) 12:21:31 435.000/436.395/437.385
QB50P1 05 Jul 12:20:53 12:25:08 84° 258° (WSW) 12:29:23 145.935-145.965
CINEMA 3 05 Jul 12:21:14 12:23:00 12° 292° (WNW) 12:24:35 145.822/145.860
ESTCUBE 1 05 Jul 12:24:42 12:28:17 23° 94° (E) 12:31:57 437.505/2401.250
ANTELSAT 05 Jul 12:31:36 12:35:11 25° 265° (W) 12:38:40 437.575/2403.000
NANOSAT C BR1 05 Jul 12:34:48 12:38:59 57° 260° (W) 12:43:09 145.865
VELOX 1 05 Jul 12:37:35 12:41:52 50° 100° (E) 12:46:08 145.980
VERMONT LUNAR 05 Jul 12:38:37 12:41:46 87° 202° (SSW) 12:44:55 437.305
DUCHIFAT 1 05 Jul 12:41:29 12:45:35 48° 261° (W) 12:49:42 145.980
HO-68 05 Jul 12:43:13 12:46:52 14° 303° (WNW) 12:50:07 435.675
DX 1 05 Jul 12:43:14 12:47:34 72° 285° (WNW) 12:51:52 434.975-435.025
TIGRISAT 05 Jul 12:44:05 12:47:12 19° 267° (W) 12:50:09 435.000
POLYITAN 1 05 Jul 12:48:02 12:52:01 38° 262° (W) 12:55:58 437.675
50 SAT 05 Jul 12:48:40 12:52:36 88° 100° (E) 12:56:32 437.505
DELFI C3 05 Jul 12:50:54 12:53:18 15° 292° (WNW) 12:55:33 145.870
BUGSAT 1 05 Jul 12:53:56 12:58:04 53° 260° (W) 13:02:12 437.445
RS-15 05 Jul 12:56:22 13:08:12 85° 241° (WSW) 13:20:26 29.354- 29.394
ZACube-1 05 Jul 13:00:08 13:02:45 16° 291° (WNW) 13:05:12 437.345
UKube-1 05 Jul 13:02:46 13:06:55 46° 287° (WNW) 13:11:02 .
SPROUT 05 Jul 13:03:19 13:05:24 14° 91° (E) 13:07:43 437.525
HUMSAT D 05 Jul 13:09:54 13:13:25 26° 288° (WNW) 13:16:53 437.325/437.525
PHONESAT 2.4 05 Jul 13:09:55 13:13:18 50° 9° (N) 13:16:41 2401.200-2431.200
Cosmos 2499 05 Jul 13:16:54 13:23:00 30° 288° (WNW) 13:29:01 435.465 / 435.565
QB50P2 05 Jul 13:18:53 13:21:49 17° 267° (W) 13:24:35 145.880/145.840
POPSAT HIP 1 05 Jul 13:19:17 13:22:15 18° 267° (W) 13:25:05 437.405
AISAT 05 Jul 13:25:08 13:29:19 43° 287° (WNW) 13:33:28 437.250
CUBEBUG 1 05 Jul 13:39:39 13:43:56 56° 286° (WNW) 13:48:09 437.445
TISAT 1 05 Jul 13:39:55 13:43:13 23° 95° (E) 13:46:37 437.305
Oscar 19 05 Jul 13:49:55 13:54:22 32° 70° (ENE) 13:58:54 437.125/150
ISS 05 Jul 13:57:00 13:57:50 11° 19° (NNE) 13:58:44 145.825
ESTCUBE 1 05 Jul 14:01:13 14:05:10 29° 289° (WNW) 14:09:00 437.505/2401.250
Gurwin Techsat 1B 05 Jul 14:06:16 14:08:32 13° 64° (ENE) 14:11:05 435.225
ITAMSAT 1 05 Jul 14:06:32 14:08:31 13° 63° (ENE) 14:10:48 435.822/435.867
VELOX 1 05 Jul 14:15:44 14:18:02 14° 294° (WNW) 14:20:08 145.980
VERMONT LUNAR 05 Jul 14:16:17 14:18:24 17° 213° (SSW) 14:20:29 437.305
BEESAT 05 Jul 14:34:58 14:37:45 16° 91° (E) 14:40:45 436.000
SPROUT 05 Jul 14:37:42 14:41:46 43° 286° (WNW) 14:45:47 437.525
PHONESAT 2.4 05 Jul 14:47:59 14:51:22 54° 205° (SSW) 14:54:46 2401.200-2431.200
SWISSCUBE 05 Jul 14:49:51 14:53:46 25° 95° (E) 14:57:45 437.505
AO-7 05 Jul 14:53:03 14:56:33 14° 52° (NE) 15:00:34 29.400- 29.500
ITUPSAT 1 05 Jul 14:55:39 14:59:38 26° 95° (E) 15:03:41 437.325
RS-15 05 Jul 15:11:31 15:19:27 19° 258° (WSW) 15:26:37 29.354- 29.394
TISAT 1 05 Jul 15:15:30 15:18:57 25° 289° (WNW) 15:22:18 437.305
JAS-2 05 Jul 15:28:40 15:32:12 19° 65° (ENE) 15:36:01 435.910
YUBILEINY 05 Jul 15:29:13 15:37:53 63° 79° (E) 15:46:35 435.215
Oscar 19 05 Jul 15:29:22 15:33:45 27° 265° (W) 15:38:02 437.125/150
ISS 05 Jul 15:31:41 15:34:52 52° 37° (NE) 15:38:02 145.825
ITAMSAT 1 05 Jul 15:42:13 15:47:27 77° 259° (WSW) 15:52:42 435.822/435.867
Gurwin Techsat 1B 05 Jul 15:42:39 15:47:57 75° 257° (WSW) 15:53:18 435.225
Cosmos 2491 05 Jul 15:47:53 15:56:03 46° 89° (E) 16:04:21 435.465 / 435.565
BEESAT 05 Jul 16:11:17 16:15:54 47° 287° (WNW) 16:20:28 436.000
BEESAT 3 05 Jul 16:15:57 16:18:46 18° 48° (NE) 16:21:38 437.485
AIST 1 05 Jul 16:18:29 16:22:35 40° 93° (E) 16:26:44
STARS 05 Jul 16:20:07 16:23:16 20° 94° (E) 16:26:32 437.465
SO-50 05 Jul 16:26:10 16:28:42 15° 109° (ESE) 16:31:29 436.795
SWISSCUBE 05 Jul 16:27:25 16:31:37 30° 290° (WNW) 16:35:44 437.505
PHONESAT 2.4 05 Jul 16:28:27 16:28:57 10° 217° (SW) 16:29:18 2401.200-2431.200
PCSat 05 Jul 16:29:14 16:34:36 71° 115° (ESE) 16:40:01 145.827
BEESAT 2 05 Jul 16:29:41 16:32:41 20° 49° (NE) 16:35:44 435.950
Cosmos 2504 05 Jul 16:30:15 16:33:53 14° 65° (ENE) 16:38:09 435.465 / 435.565
ITUPSAT 1 05 Jul 16:33:20 16:37:31 29° 290° (WNW) 16:41:36 437.325
AO-7 05 Jul 16:39:47 16:48:01 68° 69° (ENE) 16:56:20 29.400- 29.500
HORYU 2 05 Jul 17:03:25 17:07:50 77° 258° (WSW) 17:12:15 437.375
KKS-1 05 Jul 17:06:27 17:10:52 69° 285° (WNW) 17:15:15 437.445
ISS 05 Jul 17:09:26 17:10:57 13° 231° (SW) 17:12:22 145.825
JAS-2 05 Jul 17:12:07 17:17:02 43° 262° (W) 17:22:07 435.910
YUBILEINY 05 Jul 17:27:17 17:34:08 25° 276° (W) 17:40:38 435.215
JUGNU 05 Jul 17:29:02 17:31:41 13° 173° (S) 17:34:23 437.505
MOZHAYETS 4 05 Jul 17:32:58 17:36:30 22° 93° (E) 17:40:09
Cosmos 2491 05 Jul 17:45:07 17:53:07 36° 288° (WNW) 18:00:58 435.465 / 435.565
BEESAT 3 05 Jul 17:53:07 17:56:53 37° 245° (WSW) 18:00:34 437.485
AIST 2 05 Jul 17:55:37 17:59:33 38° 55° (NE) 18:03:25 435.215
STARS 05 Jul 17:55:53 17:59:48 31° 288° (WNW) 18:03:38 437.465
AIST 1 05 Jul 17:57:52 18:00:30 15° 289° (WNW) 18:02:57
SO-50 05 Jul 18:04:09 18:08:47 55° 304° (NW) 18:13:35 436.795
O/OREOS (USA 219) 05 Jul 18:07:06 18:11:30 48° 66° (ENE) 18:15:54 437.305
BEESAT 2 05 Jul 18:07:09 18:10:51 34° 246° (WSW) 18:14:28 435.950
PCSat 05 Jul 18:15:06 18:18:39 17° 314° (NW) 18:22:00 145.827
Cosmos 2504 05 Jul 18:19:34 18:27:12 87° 83° (E) 18:35:24 435.465 / 435.565
SRMSAT 05 Jul 18:25:11 18:26:07 10° 168° (SSE) 18:27:08 437.500
CUTE-I 05 Jul 18:27:30 18:31:45 25° 68° (ENE) 18:36:08 437.470
AO-7 05 Jul 18:34:59 18:41:31 24° 267° (W) 18:47:43 29.400- 29.500
Cubesat XI-IV 05 Jul 19:01:01 19:06:11 52° 73° (ENE) 19:11:26 437.490
MOZHAYETS 4 05 Jul 19:09:37 19:13:48 32° 288° (WNW) 19:17:54
JUGNU 05 Jul 19:16:46 19:19:55 15° 183° (S) 19:23:03 437.505
CUSAT 1 05 Jul 19:29:54 19:31:36 16° 75° (ENE) 19:33:25 437.405
AIST 2 05 Jul 19:35:03 19:37:50 17° 249° (WSW) 19:40:26 435.215
CUBESAT XI-V 05 Jul 19:39:36 19:44:00 40° 97° (E) 19:48:22 437.345
O/OREOS (USA 219) 05 Jul 19:48:10 19:50:33 14° 260° (W) 19:52:42 437.305
GONETS M04 05 Jul 20:06:31 20:13:06 24° 67° (ENE) 20:20:00
CUTE-I 05 Jul 20:06:41 20:11:39 38° 263° (W) 20:16:37 437.470
SRMSAT 05 Jul 20:11:21 20:14:29 15° 178° (S) 20:17:37 437.500
Cosmos 2504 05 Jul 20:14:29 20:18:42 15° 277° (W) 20:22:27 435.465 / 435.565
GOMX 1 05 Jul 20:29:03 20:33:05 25° 71° (ENE) 20:37:03 467.674
DANDE 05 Jul 20:42:50 20:45:23 40° 264° (W) 20:47:50 436.750
Cubesat XI-IV 05 Jul 20:43:03 20:46:40 18° 269° (W) 20:50:04 437.490
COMPASS 1 05 Jul 20:49:07 20:49:41 10° 66° (ENE) 20:50:30 437.405
PRISM 05 Jul 20:54:46 20:58:59 80° 101° (ESE) 21:03:09 437.425
BRITE-PL 05 Jul 20:59:05 21:04:36 83° 77° (ENE) 21:09:47 437.365/2234.400
CUTE 1.7 + AOD 2 05 Jul 21:00:46 21:04:04 23° 71° (ENE) 21:07:28 437.475
CANX-2 05 Jul 21:04:03 21:07:37 28° 72° (ENE) 21:11:17 2200.000
DOVE 4 05 Jul 21:06:05 21:10:27 35° 73° (ENE) 21:14:39 437.250
STRAND 1 05 Jul 21:06:40 21:11:50 80° 286° (WNW) 21:16:57 437.568
JUGNU 05 Jul 21:07:59 21:08:08 10° 192° (SSW) 21:08:10 437.505
CUBESAT XI-V 05 Jul 21:17:52 21:21:09 19° 292° (WNW) 21:24:16 437.345
Cosmos 2499 05 Jul 21:17:55 21:20:53 13° 62° (ENE) 21:24:36 435.465 / 435.565
HO-68 05 Jul 21:18:30 21:25:28 61° 71° (ENE) 21:32:31 435.675
UWE-3 05 Jul 21:36:10 21:36:19 10° 66° (ENE) 21:36:43 435.000/436.395/437.385
CINEMA 3 05 Jul 21:41:42 21:45:48 36° 73° (ENE) 21:49:47 145.822/145.860
SEEDS 05 Jul 21:45:53 21:50:00 65° 76° (ENE) 21:54:10 437.485
AAUSAT CUBESAT 2 05 Jul 21:53:29 21:57:29 51° 75° (ENE) 22:01:33 437.432
M-CUBED/EXP-1 PRIME 05 Jul 21:56:37 22:00:10 24° 100° (E) 22:03:57 437.505
SRMSAT 05 Jul 22:00:22 22:02:52 13° 188° (S) 22:05:18 437.500
DELFI C3 05 Jul 22:00:38 22:03:16 18° 70° (ENE) 22:06:03 145.870
GONETS M04 05 Jul 22:02:09 22:10:45 66° 267° (W) 22:19:16
GOMX 1 05 Jul 22:06:24 22:11:06 34° 263° (W) 22:15:30 467.674
ZACube-1 05 Jul 22:17:04 22:20:24 24° 71° (ENE) 22:23:47 437.345
CUBEBUG 2 05 Jul 22:20:23 22:24:28 44° 75° (ENE) 22:28:29 437.445
COMPASS 1 05 Jul 22:20:48 22:24:53 59° 260° (W) 22:29:01 437.405
Oscar 11 05 Jul 22:21:42 22:25:49 48° 74° (ENE) 22:30:00 145.826/435.025
HUMSAT D 05 Jul 22:25:54 22:27:22 12° 67° (ENE) 22:29:03 437.325/437.525
CUTE 1.7 + AOD 2 05 Jul 22:36:25 22:39:55 25° 266° (W) 22:43:21 437.475
CANX-2 05 Jul 22:40:24 22:43:35 20° 267° (W) 22:46:41 2200.000
BRITE-PL 05 Jul 22:42:27 22:43:40 10° 272° (W) 22:44:27 437.365/2234.400
DOVE 4 05 Jul 22:44:33 22:48:17 21° 266° (W) 22:51:45 437.250
AISAT 05 Jul 22:47:20 22:48:27 11° 65° (ENE) 22:49:51 437.250
FUNcube-1 05 Jul 22:51:40 22:55:48 60° 76° (ENE) 22:59:54 145.935
AUBIESAT-1 05 Jul 22:54:54 22:59:15 85° 290° (WNW) 23:03:51 437.475
Cosmos 2499 05 Jul 23:07:29 23:15:28 77° 82° (E) 23:24:03 435.465 / 435.565
UWE-3 05 Jul 23:08:12 23:12:25 62° 260° (W) 23:16:34 435.000/436.395/437.385
HO-68 05 Jul 23:08:13 23:13:44 22° 268° (W) 23:18:58 435.675
CINEMA 3 05 Jul 23:20:01 23:23:07 18° 267° (W) 23:26:00 145.822/145.860
ESTCUBE 1 05 Jul 23:22:51 23:25:46 18° 68° (ENE) 23:28:51 437.505/2401.250
50 SAT 05 Jul 23:30:44 23:34:08 32° 73° (ENE) 23:37:37 437.505
M-CUBED/EXP-1 PRIME 05 Jul 23:31:09 23:34:56 29° 292° (WNW) 23:38:50 437.505
AAUSAT CUBESAT 2 05 Jul 23:32:26 23:33:29 11° 271° (W) 23:34:15 437.432
VELOX 1 05 Jul 23:32:58 23:36:59 34° 72° (ENE) 23:41:02 145.980
DELFI C3 05 Jul 23:34:36 23:38:10 30° 264° (W) 23:41:43 145.870
DX 1 05 Jul 23:36:13 23:40:35 73° 76° (ENE) 23:44:58 434.975-435.025
UNISAT 6 05 Jul 23:40:36 23:44:07 23° 95° (E) 23:47:46 437.425
ZACube-1 05 Jul 23:53:15 23:56:43 24° 265° (W) 00:00:04 437.345
UKube-1 05 Jul 23:54:50 23:59:10 75° 257° (WSW) 00:03:32 .
HUMSAT D 05 Jul 23:58:46 00:02:44 48° 261° (W) 00:06:43 437.325/437.525
CUBEBUG 2 05 Jul 23:59:19 00:01:26 13° 269° (W) 00:03:18 437.445
Oscar 11 06 Jul 00:00:27 00:02:21 12° 270° (W) 00:04:01 145.826/435.025
QB50P1 06 Jul 00:09:14 00:12:05 18° 93° (E) 00:15:05 145.935-145.965
AISAT 06 Jul 00:20:06 00:24:33 66° 258° (WSW) 00:29:00 437.250
NANOSAT C BR1 06 Jul 00:22:21 00:25:49 25° 95° (E) 00:29:21 145.865
ANTELSAT 06 Jul 00:24:28 00:28:53 76° 101° (ESE) 00:33:24 437.575/2403.000
DUCHIFAT 1 06 Jul 00:28:36 00:32:15 29° 96° (E) 00:35:57 145.980
TISAT 1 06 Jul 00:31:00 00:33:11 14° 68° (ENE) 00:35:32 437.305
CUBEBUG 1 06 Jul 00:33:00 00:37:27 88° 77° (ENE) 00:41:54 437.445
POLYITAN 1 06 Jul 00:35:30 00:39:25 38° 98° (E) 00:43:22 437.675
TIGRISAT 06 Jul 00:36:08 00:40:32 83° 283° (WNW) 00:45:02 435.000
BUGSAT 1 06 Jul 00:38:57 00:42:14 24° 95° (E) 00:45:33 437.445
ESTCUBE 1 06 Jul 00:58:05 01:02:21 40° 262° (W) 01:06:39 437.505/2401.250
SO-50 06 Jul 00:59:55 01:01:09 11° 38° (NE) 01:02:37 436.795
Cosmos 2499 06 Jul 01:02:36 01:08:01 19° 276° (W) 01:13:10 435.465 / 435.565
QB50P2 06 Jul 01:04:44 01:08:58 89° 90° (E) 01:13:11 145.880/145.840
POPSAT HIP 1 06 Jul 01:05:03 01:09:16 87° 98° (E) 01:13:29 437.405
50 SAT 06 Jul 01:06:43 01:08:55 14° 268° (W) 01:10:57 437.505
VELOX 1 06 Jul 01:10:22 01:13:38 19° 267° (W) 01:16:47 145.980
RS-15 06 Jul 01:11:22 01:16:26 15° 101° (E) 01:22:29 29.354- 29.394
UNISAT 6 06 Jul 01:17:06 01:20:53 28° 289° (WNW) 01:24:40 437.425
PCSat 06 Jul 01:19:39 01:24:35 35° 55° (NE) 01:29:33 145.827
SPROUT 06 Jul 01:29:02 01:33:21 78° 259° (W) 01:37:40 437.525
BEESAT 06 Jul 01:39:55 01:42:30 15° 66° (ENE) 01:45:17 436.000
QB50P1 06 Jul 01:44:18 01:48:03 31° 288° (WNW) 01:51:45 145.935-145.965
SWISSCUBE 06 Jul 01:54:31 01:58:13 23° 69° (ENE) 02:02:02 437.505
NANOSAT C BR1 06 Jul 01:58:13 02:01:34 23° 290° (WNW) 02:04:48 145.865
ITUPSAT 1 06 Jul 02:00:33 02:04:19 24° 69° (ENE) 02:08:13 437.325
Cosmos 2491 06 Jul 02:02:11 02:07:49 19° 64° (ENE) 02:13:54 435.465 / 435.565
TISAT 1 06 Jul 02:04:33 02:08:37 44° 261° (W) 02:12:40 437.305
DUCHIFAT 1 06 Jul 02:04:48 02:07:54 20° 291° (WNW) 02:10:53 145.980
Oscar 19 06 Jul 02:05:21 02:07:25 13° 89° (E) 02:09:49 437.125/150
POLYITAN 1 06 Jul 02:12:24 02:15:03 16° 292° (WNW) 02:17:32 437.675
BUGSAT 1 06 Jul 02:14:26 02:17:37 22° 290° (WNW) 02:20:41 437.445
YUBILEINY 06 Jul 02:37:20 02:39:51 12° 79° (ENE) 02:43:09 435.215
SO-50 06 Jul 02:37:44 02:42:42 71° 58° (ENE) 02:47:32 436.795
PCSat 06 Jul 03:03:16 03:07:55 29° 251° (WSW) 03:12:28 145.827
BEESAT 06 Jul 03:15:16 03:19:56 53° 260° (W) 03:24:38 436.000
STARS 06 Jul 03:15:54 03:18:09 14° 67° (ENE) 03:20:36 437.465
RS-15 06 Jul 03:16:26 03:27:17 81° 117° (ESE) 03:38:29 29.354- 29.394
SWISSCUBE 06 Jul 03:31:36 03:35:55 33° 263° (W) 03:40:13 437.505
ITUPSAT 1 06 Jul 03:37:47 03:42:05 32° 264° (W) 03:46:21 437.325
Oscar 19 06 Jul 03:42:14 03:47:19 65° 286° (WNW) 03:52:23 437.125/150
